This is the latest recevied weather packets stored in our database for station/object AE0NK. If no packets are shown the sender has not sent any weather packets the latest 10 day(s).
| Time | Temp. | Humidity | Pressure | Rain* | Wind** | Luminosity | Snow |
|---|---|---|---|---|---|---|---|
| 1778031800 | 12.78° C | 37% | 1010.1 hPa | 0 mm | - | 0 W/m² | - |
| 1778031499 | 12.78° C | 38% | 1010.1 hPa | 0 mm | - | 0 W/m² | - |
| 1778031196 | 12.78° C | 37% | 1009.9 hPa | 0 mm | - | 0 W/m² | - |
| 1778030895 | 12.78° C | 36% | 1009.9 hPa | 0 mm | - | 0 W/m² | - |
| 1778030592 | 13.33° C | 34% | 1009.8 hPa | 0 mm | - | 0 W/m² | - |
| 1778030008 | 13.33° C | 36% | 1009.5 hPa | 0 mm | - | 0 W/m² | - |
| 1778029706 | 13.33° C | 35% | 1009.5 hPa | 0 mm | - | 0 W/m² | - |
| 1778029405 | 13.33° C | 35% | 1009.6 hPa | 0 mm | - | 0 W/m² | - |
| 1778029101 | 13.33° C | 35% | 1009.4 hPa | 0 mm | - | 5 W/m² | - |
| 1778028818 | 13.33° C | 35% | 1009.4 hPa | 0 mm | - | 7 W/m² | - |
| 1778028508 | 13.33° C | 33% | 1009.3 hPa | 0 mm | - | 11 W/m² | - |
| 1778028207 | 13.33° C | 33% | 1009.4 hPa | 0 mm | - | 14 W/m² | - |
| 1778027904 | 13.89° C | 38% | 1009.4 hPa | 0 mm | - | 19 W/m² | - |
| 1778027600 | 13.33° C | 37% | 1009.4 hPa | 0 mm | - | 23 W/m² | - |
| 1778027298 | 13.89° C | 37% | 1009.2 hPa | 0 mm | - | 25 W/m² | - |
| 1778026995 | 13.33° C | 40% | 1009.2 hPa | 0 mm | - | 26 W/m² | - |
| 1778026693 | 13.33° C | 44% | 1009.2 hPa | 0 mm | - | 40 W/m² | - |
| 1778026392 | 13.89° C | 43% | 1009.2 hPa | 0 mm | - | 42 W/m² | - |
| 1778026110 | 13.89° C | 42% | 1009 hPa | 0 mm | - | 49 W/m² | - |
| 1778025807 | 13.89° C | 41% | 1009 hPa | 0 mm | - | 47 W/m² | - |
| 1778025502 | 13.89° C | 40% | 1009 hPa | 0 mm | - | 49 W/m² | - |
| 1778025200 | 13.89° C | 39% | 1009.1 hPa | 0 mm | - | 54 W/m² | - |
| 1778024897 | 13.89° C | 39% | 1009 hPa | 0 mm | - | 67 W/m² | - |
| 1778024595 | 14.44° C | 40% | 1008.9 hPa | 0 mm | - | 79 W/m² | - |
| 1778024292 | 14.44° C | 40% | 1008.9 hPa | 0 mm | - | 83 W/m² | - |
* Rain latest hour (hover to see other rain measurements)
** Current wind speed in m/s (hover to see current wind gust speed)